Total_Precipitation_Accumulation
0.00 0.00 0.00 0.00 0.00 0.00 0.00 0.00 0.00 0.00 0.00 0.00 0.00 0.00 0.00 0.00 0.00 0.00 0.00 0.00 0.00 0.00 0.00 0.00 0.00 0.00 0.00 0.00 0.00 0.00 0.01 0.06 0.02 0.06 0.18 0.07 0.04 0.02 0.01 0.02 0.06 0.13 0.12 0.14 0.05 0.05 0.05 0.04 0.04 0.01 0.00 0.00 0.00 0.00 0.00 0.00 0.00 0.00 0.00 0.00 0.00 0.00 0.01 0.01 0.03 0.02 0.00 0.00 0.00 0.00 0.00 0.00 0.00 0.00 0.00 0.00 0.00 0.00 0.01 0.02 0.02 0.03 0.06 0.03 0.02 0.02 0.01 0.01 0.01 0.00 0.00 0.00 0.00 0.00 0.00 0.00 0.00
0.00 0.00 0.00 0.00 0.00 0.00 0.00 0.00 0.00 0.00 0.00 0.00 0.00 0.00 0.00 0.00 0.00 0.00 0.00 0.00 0.00 0.00 0.00 0.00 0.00 0.00 0.00 0.00 0.00 0.00 0.00 0.01 0.00 0.02 0.07 0.08 0.04 0.02 0.02 0.23 0.44 0.30 0.21 0.06 0.06 0.05 0.06 0.04 0.07 0.01 0.01 0.01 0.00 0.00 0.00 0.00 0.00 0.00 0.00 0.01 0.00 0.00 0.00 0.00 0.02 0.00 0.00 0.00 0.00 0.00 0.00 0.00 0.00 0.00 0.00 0.00 0.00 0.00 0.00 0.03 0.06 0.04 0.04 0.01 0.00 0.00 0.00 0.00 0.00 0.00 0.00 0.00 0.00 0.01 0.00 0.00 0.00
0.00 0.00 0.00 0.00 0.00 0.00 0.00 0.00 0.00 0.00 0.00 0.00 0.00 0.00 0.00 0.00 0.00 0.00 0.00 0.00 0.00 0.00 0.00 0.00 0.00 0.00 0.00 0.00 0.00 0.05 0.12 0.03 0.01 0.02 0.11 0.06 0.04 0.11 0.07 0.35 0.28 0.31 0.27 0.23 0.10 0.04 0.09 0.05 0.09 0.03 0.03 0.01 0.01 0.00 0.00 0.00 0.00 0.00 0.00 0.00 0.00 0.00 0.00 0.00 0.00 0.00 0.00 0.00 0.00 0.00 0.00 0.00 0.00 0.00 0.00 0.00 0.00 0.00 0.01 0.02 0.04 0.05 0.02 0.00 0.00 0.00 0.00 0.01 0.01 0.01 0.01 0.02 0.01 0.01 0.01 0.01 0.01
0.00 0.00 0.00 0.00 0.00 0.00 0.00 0.00 0.00 0.00 0.00 0.00 0.00 0.00 0.00 0.00 0.00 0.00 0.00 0.00 0.00 0.00 0.00 0.00 0.01 0.00 0.00 0.00 0.01 0.00 0.02 0.02 0.02 0.01 0.10 0.10 0.06 0.08 0.10 0.27 0.20 0.27 0.29 0.24 0.15 0.13 0.08 0.07 0.09 0.07 0.03 0.01 0.01 0.01 0.00 0.00 0.00 0.00 0.00 0.00 0.00 0.00 0.00 0.00 0.00 0.00 0.00 0.00 0.00 0.00 0.00 0.01 0.00 0.00 0.00 0.01 0.00 0.01 0.00 0.02 0.00 0.00 0.00 0.00 0.00 0.01 0.02 0.05 0.02 0.01 0.01 0.01 0.00 0.01 0.01 0.01 0.02
0.00 0.00 0.00 0.00 0.00 0.00 0.00 0.00 0.00 0.00 0.00 0.00 0.00 0.00 0.00 0.00 0.00 0.00 0.00 0.00 0.00 0.00 0.00 0.00 0.00 0.00 0.00 0.01 0.01 0.04 0.03 0.04 0.04 0.03 0.04 0.03 0.03 0.07 0.33 0.56 0.49 0.38 0.18 0.22 0.15 0.13 0.14 0.08 0.05 0.17 0.06 0.04 0.02 0.01 0.00 0.00 0.00 0.00 0.00 0.00 0.00 0.00 0.00 0.00 0.00 0.00 0.00 0.00 0.00 0.01 0.01 0.03 0.03 0.02 0.03 0.01 0.00 0.00 0.01 0.01 0.00 0.00 0.00 0.01 0.01 0.00 0.01 0.00 0.00 0.02 0.00 0.01 0.01 0.02 0.03 0.01 0.02
0.00 0.00 0.00 0.00 0.00 0.00 0.00 0.00 0.00 0.00 0.00 0.00 0.00 0.00 0.00 0.00 0.00 0.00 0.00 0.00 0.00 0.00 0.00 0.00 0.01 0.00 0.01 0.03 0.07 0.03 0.04 0.08 0.02 0.03 0.03 0.06 0.05 0.31 0.43 0.51 0.32 0.27 0.23 0.32 0.25 0.20 0.22 0.04 0.06 0.12 0.11 0.12 0.06 0.11 0.01 0.00 0.00 0.00 0.00 0.00 0.00 0.00 0.00 0.00 0.00 0.00 0.01 0.00 0.00 0.01 0.01 0.04 0.03 0.06 0.08 0.04 0.03 0.04 0.04 0.01 0.00 0.00 0.01 0.01 0.01 0.01 0.01 0.00 0.00 0.00 0.00 0.01 0.03 0.03 0.00 0.01 0.01
0.00 0.00 0.00 0.00 0.00 0.00 0.00 0.00 0.00 0.00 0.00 0.00 0.00 0.00 0.00 0.00 0.00 0.00 0.00 0.00 0.00 0.00 0.00 0.00 0.00 0.01 0.06 0.01 0.01 0.02 0.02 0.05 0.05 0.05 0.05 0.07 0.11 0.32 0.42 0.22 0.20 0.35 0.41 0.24 0.15 0.13 0.21 0.04 0.08 0.15 0.14 0.13 0.15 0.13 0.05 0.02 0.01 0.00 0.00 0.00 0.01 0.01 0.00 0.00 0.00 0.01 0.01 0.02 0.01 0.02 0.02 0.03 0.02 0.02 0.08 0.10 0.02 0.04 0.07 0.01 0.02 0.02 0.05 0.02 0.01 0.01 0.01 0.01 0.00 0.00 0.00 0.01 0.01 0.00 0.00 0.01 0.02
0.00 0.00 0.00 0.00 0.00 0.00 0.00 0.00 0.00 0.00 0.00 0.00 0.00 0.00 0.00 0.00 0.00 0.00 0.00 0.00 0.00 0.00 0.00 0.00 0.00 0.00 0.57 0.01 0.13 0.03 0.03 0.02 0.06 0.03 0.03 0.08 0.38 0.36 0.32 0.20 0.22 0.55 0.25 0.23 0.15 0.12 0.22 0.06 0.04 0.04 0.09 0.14 0.10 0.25 0.17 0.09 0.02 0.02 0.00 0.00 0.01 0.00 0.01 0.00 0.00 0.01 0.01 0.03 0.04 0.01 0.02 0.03 0.01 0.01 0.06 0.03 0.04 0.04 0.04 0.02 0.01 0.07 0.03 0.01 0.01 0.01 0.01 0.00 0.00 0.00 0.01 0.02 0.01 0.00 0.00 0.02 0.00
0.00 0.00 0.00 0.00 0.00 0.00 0.00 0.00 0.00 0.00 0.00 0.00 0.00 0.00 0.00 0.00 0.00 0.00 0.00 0.00 0.00 0.00 0.00 0.00 0.00 0.08 0.33 0.06 0.17 0.12 0.06 0.07 0.03 0.03 0.03 0.22 0.53 0.49 0.64 0.14 0.40 0.31 0.31 0.35 0.19 0.18 0.18 0.05 0.03 0.03 0.04 0.03 0.11 0.14 0.15 0.12 0.05 0.02 0.02 0.00 0.00 0.00 0.00 0.00 0.00 0.00 0.02 0.03 0.06 0.05 0.02 0.02 0.01 0.01 0.01 0.02 0.11 0.05 0.05 0.03 0.01 0.04 0.02 0.01 0.01 0.03 0.01 0.03 0.02 0.03 0.02 0.01 0.01 0.00 0.00 0.00 0.00
0.00 0.00 0.00 0.00 0.00 0.00 0.00 0.00 0.00 0.00 0.00 0.00 0.00 0.00 0.00 0.00 0.00 0.00 0.00 0.00 0.00 0.00 0.00 0.00 0.00 0.02 0.00 0.55 0.13 0.20 0.25 0.17 0.20 0.14 0.12 0.34 1.06 1.15 0.71 0.96 0.30 0.63 0.50 0.42 0.33 0.26 0.20 0.32 0.04 0.03 0.04 0.01 0.04 0.13 0.13 0.12 0.06 0.00 0.01 0.00 0.00 0.00 0.00 0.00 0.00 0.01 0.01 0.01 0.06 0.03 0.02 0.01 0.01 0.01 0.01 0.02 0.05 0.16 0.04 0.01 0.01 0.02 0.01 0.01 0.01 0.02 0.01 0.01 0.01 0.02 0.02 0.01 0.00 0.00 0.00 0.00 0.00
0.00 0.00 0.00 0.00 0.00 0.00 0.00 0.00 0.00 0.00 0.00 0.00 0.00 0.00 0.00 0.00 0.00 0.00 0.00 0.00 0.00 0.00 0.00 0.00 0.01 0.01 0.02 0.23 0.35 0.20 0.47 0.19 0.15 0.28 0.37 0.44 0.77 1.01 1.80 0.89 0.62 0.56 0.81 0.60 0.71 0.46 0.23 0.48 0.19 0.05 0.07 0.08 0.03 0.05 0.15 0.17 0.17 0.05 0.00 0.00 0.00 0.01 0.01 0.01 0.00 0.03 0.02 0.04 0.03 0.03 0.01 0.02 0.03 0.01 0.02 0.05 0.07 0.02 0.01 0.01 0.01 0.03 0.02 0.01 0.01 0.00 0.00 0.01 0.01 0.01 0.01 0.00 0.00 0.00 0.00 0.00 0.00
0.00 0.00 0.00 0.00 0.00 0.00 0.00 0.00 0.00 0.00 0.00 0.00 0.00 0.00 0.00 0.00 0.00 0.00 0.00 0.00 0.00 0.00 0.01 0.00 0.04 0.00 0.07 0.06 0.18 0.71 0.57 0.43 0.89 0.44 0.48 1.02 0.77 0.43 0.75 0.38 0.32 0.62 0.69 1.17 0.56 0.47 0.53 0.47 0.53 0.28 0.14 0.13 0.12 0.05 0.29 0.23 0.19 0.15 0.02 0.00 0.00 0.00 0.00 0.01 0.03 0.06 0.01 0.03 0.02 0.01 0.01 0.00 0.01 0.01 0.01 0.01 0.01 0.02 0.01 0.02 0.06 0.06 0.01 0.01 0.04 0.01 0.01 0.02 0.02 0.00 0.00 0.00 0.00 0.00 0.00 0.00 0.00
0.00 0.00 0.00 0.00 0.00 0.00 0.00 0.00 0.00 0.00 0.00 0.00 0.00 0.00 0.00 0.00 0.00 0.00 0.00 0.00 0.00 0.00 0.00 0.00 0.00 0.00 0.31 0.09 0.20 0.39 0.63 0.73 0.54 0.66 0.66 0.87 0.47 0.42 0.49 0.30 0.74 0.74 0.45 0.72 0.46 0.29 0.27 0.36 0.33 0.36 0.17 0.07 0.12 0.13 0.13 0.17 0.09 0.12 0.14 0.05 0.06 0.05 0.01 0.03 0.04 0.03 0.02 0.01 0.01 0.00 0.01 0.01 0.00 0.00 0.00 0.00 0.00 0.00 0.00 0.04 0.02 0.01 0.00 0.00 0.01 0.03 0.00 0.00 0.00 0.00 0.00 0.00 0.00 0.00 0.00 0.00 0.00
0.00 0.00 0.00 0.00 0.00 0.00 0.00 0.00 0.00 0.00 0.00 0.00 0.00 0.00 0.00 0.00 0.00 0.00 0.00 0.00 0.00 0.00 0.00 0.00 0.00 0.00 0.33 0.07 0.29 0.50 0.41 0.38 0.18 0.26 0.35 0.85 0.60 0.44 0.57 0.39 1.30 0.98 0.95 0.58 0.36 0.25 0.23 0.23 0.32 0.28 0.39 0.38 0.35 0.15 0.10 0.15 0.16 0.11 0.13 0.24 0.08 0.07 0.06 0.05 0.03 0.02 0.01 0.00 0.02 0.00 0.01 0.01 0.03 0.00 0.00 0.00 0.00 0.00 0.00 0.01 0.01 0.00 0.00 0.00 0.00 0.02 0.03 0.03 0.03 0.04 0.07 0.01 0.00 0.00 0.00 0.00 0.00
0.00 0.00 0.00 0.00 0.00 0.00 0.00 0.00 0.00 0.00 0.00 0.00 0.00 0.00 0.00 0.00 0.00 0.00 0.00 0.00 0.00 0.00 0.00 0.00 0.00 0.01 0.75 0.09 0.10 0.12 0.25 0.11 0.21 0.62 0.67 0.09 0.10 0.60 0.57 1.20 1.15 0.88 0.84 0.86 0.51 0.47 0.49 0.32 0.23 0.36 0.37 0.39 0.38 0.61 1.02 0.45 0.55 0.77 0.45 0.23 0.25 0.12 0.06 0.08 0.07 0.03 0.03 0.01 0.00 0.00 0.03 0.01 0.07 0.00 0.00 0.01 0.00 0.00 0.00 0.00 0.01 0.00 0.01 0.01 0.00 0.00 0.04 0.05 0.07 0.01 0.00 0.01 0.00 0.00 0.00 0.00 0.00
0.00 0.00 0.00 0.00 0.00 0.00 0.00 0.00 0.00 0.00 0.00 0.00 0.00 0.00 0.00 0.00 0.00 0.00 0.00 0.00 0.03 0.00 0.00 0.01 0.00 0.01 0.04 0.02 0.06 0.10 0.14 0.15 0.18 0.09 0.09 0.24 0.30 0.39 0.31 0.29 0.29 0.53 0.70 0.71 0.62 0.51 0.35 0.34 0.28 0.34 0.44 0.33 0.34 0.40 0.85 0.68 1.07 1.10 0.74 0.51 0.48 0.36 0.22 0.09 0.08 0.08 0.06 0.03 0.01 0.01 0.01 0.06 0.05 0.05 0.01 0.01 0.00 0.00 0.00 0.04 0.02 0.01 0.00 0.00 0.00 0.00 0.01 0.04 0.00 0.02 0.01 0.00 0.00 0.00 0.00 0.00 0.00
0.00 0.00 0.00 0.00 0.00 0.00 0.00 0.00 0.00 0.00 0.00 0.00 0.00 0.00 0.00 0.00 0.00 0.00 0.00 0.00 0.00 0.00 0.00 0.00 0.00 0.00 0.02 0.04 0.04 0.07 0.18 0.10 0.07 0.10 0.05 0.09 0.18 0.16 0.32 0.33 0.43 0.78 0.43 0.54 0.45 0.61 0.33 0.35 0.27 0.36 0.30 0.32 0.40 0.74 0.87 0.82 0.61 1.02 0.83 1.18 0.66 0.60 0.08 0.12 0.04 0.03 0.09 0.04 0.06 0.05 0.05 0.08 0.18 0.09 0.05 0.09 0.01 0.03 0.00 0.00 0.00 0.04 0.00 0.00 0.00 0.01 0.00 0.01 0.06 0.03 0.02 0.00 0.00 0.00 0.00 0.00 0.00
0.00 0.00 0.00 0.00 0.00 0.00 0.00 0.00 0.00 0.00 0.00 0.00 0.00 0.00 0.00 0.00 0.00 0.00 0.00 0.00 0.00 0.00 0.00 0.02 0.00 0.08 0.07 0.03 0.08 0.08 0.08 0.10 0.09 0.07 0.11 0.09 0.14 0.27 0.45 0.32 0.41 0.38 0.15 0.24 0.22 0.24 0.29 0.37 0.24 0.26 0.27 0.26 0.37 1.05 1.52 0.91 0.83 1.17 1.60 0.67 1.01 0.47 0.20 0.06 0.18 0.16 0.32 0.13 0.11 0.23 0.39 0.24 0.24 0.21 0.12 0.07 0.04 0.05 0.04 0.00 0.00 0.01 0.01 0.00 0.00 0.00 0.00 0.00 0.04 0.05 0.05 0.01 0.00 0.00 0.00 0.00 0.00
0.00 0.00 0.00 0.00 0.00 0.00 0.00 0.00 0.00 0.00 0.00 0.00 0.00 0.00 0.00 0.00 0.00 0.00 0.03 0.00 0.00 0.00 0.02 0.02 0.02 0.03 0.05 0.07 0.08 0.09 0.11 0.20 0.13 0.13 0.10 0.08 0.24 0.17 0.28 0.21 0.15 0.20 0.14 0.16 0.20 0.19 0.18 0.27 0.22 0.27 0.29 0.59 0.72 0.96 1.04 0.76 1.16 1.02 1.11 0.77 0.77 0.70 0.55 0.17 0.18 0.34 0.35 0.39 0.24 0.32 0.46 0.30 0.26 0.33 0.24 0.09 0.09 0.01 0.04 0.01 0.02 0.01 0.00 0.00 0.00 0.00 0.01 0.01 0.01 0.05 0.04 0.03 0.00 0.00 0.00 0.00 0.00
0.00 0.00 0.00 0.00 0.00 0.00 0.00 0.00 0.00 0.00 0.00 0.00 0.00 0.00 0.00 0.00 0.00 0.00 0.00 0.01 0.01 0.02 0.01 0.03 0.05 0.05 0.06 0.10 0.11 0.12 0.11 0.17 0.14 0.23 0.19 0.41 0.34 0.19 0.14 0.16 0.18 0.25 0.16 0.07 0.05 0.09 0.08 0.12 0.34 0.32 0.33 0.37 0.26 0.58 1.08 0.63 0.85 0.77 0.96 0.63 0.36 0.60 0.76 0.51 0.49 0.34 0.48 0.67 0.83 0.61 0.73 0.52 0.38 0.53 0.26 0.31 0.21 0.06 0.12 0.09 0.04 0.03 0.00 0.00 0.00 0.01 0.00 0.01 0.03 0.02 0.13 0.05 0.00 0.01 0.00 0.00 0.00
0.00 0.00 0.00 0.00 0.00 0.00 0.00 0.00 0.00 0.00 0.00 0.00 0.00 0.00 0.00 0.00 0.00 0.00 0.01 0.00 0.02 0.00 0.00 0.01 0.02 0.05 0.04 0.04 0.11 0.15 0.19 0.21 0.25 0.34 0.33 0.25 0.37 0.22 0.15 0.11 0.17 0.17 0.54 0.71 0.34 0.46 0.48 0.27 0.18 0.36 0.72 0.89 0.77 0.95 0.89 0.87 0.90 1.39 1.29 0.79 0.93 0.72 0.65 0.49 0.52 0.66 1.07 1.19 0.64 0.45 0.30 0.74 0.60 0.31 0.23 0.15 0.24 0.17 0.14 0.14 0.15 0.12 0.07 0.06 0.01 0.09 0.08 0.15 0.09 0.22 0.11 0.03 0.02 0.01 0.00 0.00 0.00
0.00 0.00 0.00 0.00 0.00 0.00 0.00 0.00 0.00 0.00 0.00 0.00 0.00 0.00 0.00 0.00 0.00 0.00 0.01 0.00 0.06 0.03 0.00 0.00 0.02 0.05 0.05 0.07 0.11 0.17 0.17 0.20 0.28 0.21 0.50 0.33 0.38 0.22 0.29 0.50 0.52 0.30 0.26 0.37 0.34 1.04 0.66 0.09 0.48 1.10 0.34 0.43 0.48 0.48 0.74 0.70 0.33 1.01 0.96 1.01 0.69 0.89 0.76 0.71 0.56 0.65 0.74 0.68 0.49 0.32 0.39 0.53 0.42 0.40 0.58 0.26 0.32 0.24 0.29 0.13 0.23 0.27 0.12 0.11 0.06 0.06 0.17 0.13 0.13 0.10 0.05 0.07 0.05 0.02 0.01 0.01 0.00
0.00 0.00 0.00 0.00 0.00 0.00 0.00 0.00 0.00 0.00 0.00 0.00 0.00 0.00 0.00 0.00 0.00 0.00 0.00 0.00 0.00 0.00 0.00 0.00 0.00 0.03 0.10 0.04 0.07 0.10 0.15 0.35 0.23 0.23 0.48 0.51 0.30 0.29 0.22 0.41 0.30 0.16 0.14 0.38 0.45 0.28 0.19 0.28 0.57 0.78 0.65 0.63 0.55 0.65 1.01 0.49 0.62 1.22 0.91 0.79 0.72 0.92 0.81 0.83 0.88 0.78 0.75 0.95 0.76 0.72 0.62 0.52 0.43 0.52 0.46 0.30 0.34 0.73 0.99 0.86 0.42 0.64 0.29 0.14 0.04 0.14 0.07 0.06 0.09 0.19 0.16 0.05 0.03 0.03 0.02 0.01 0.00
0.00 0.00 0.00 0.00 0.00 0.00 0.00 0.00 0.00 0.00 0.00 0.00 0.00 0.00 0.00 0.00 0.00 0.00 0.00 0.00 0.00 0.00 0.01 0.01 0.02 0.04 0.08 0.11 0.44 0.34 0.11 0.23 0.44 0.51 0.42 0.21 0.30 0.43 0.65 0.31 0.28 0.38 0.22 0.24 0.34 0.20 0.12 0.24 0.48 0.75 0.50 0.42 0.39 0.64 0.56 0.77 0.82 0.77 0.65 0.99 0.80 0.62 0.37 0.63 0.39 0.58 0.77 0.70 0.46 0.83 0.46 0.70 0.41 0.35 0.37 0.50 0.38 0.73 1.22 0.76 0.71 0.69 0.69 0.27 0.06 0.06 0.05 0.05 0.06 0.15 0.10 0.02 0.04 0.05 0.15 0.02 0.02
0.00 0.00 0.00 0.00 0.00 0.00 0.00 0.00 0.00 0.00 0.00 0.00 0.00 0.00 0.00 0.00 0.00 0.00 0.00 0.00 0.00 0.00 0.01 0.01 0.03 0.05 0.10 0.08 0.16 0.49 0.39 0.27 0.28 0.14 0.24 0.19 0.28 0.19 0.52 0.36 0.30 0.38 0.48 0.34 0.31 0.06 0.24 0.53 0.41 0.28 0.24 0.36 0.22 0.35 0.54 0.24 0.29 0.52 0.41 0.44 0.76 0.74 0.69 0.65 0.41 0.64 0.63 0.63 0.47 0.40 0.36 0.45 0.40 0.33 0.39 0.53 0.70 0.54 0.31 0.32 0.35 0.54 0.66 0.52 0.12 0.04 0.04 0.06 0.07 0.11 0.05 0.02 0.01 0.01 0.01 0.03 0.01
0.00 0.00 0.00 0.00 0.00 0.00 0.00 0.00 0.00 0.00 0.00 0.00 0.00 0.00 0.00 0.00 0.00 0.00 0.00 0.00 0.00 0.00 0.01 0.00 0.02 0.03 0.04 0.05 0.13 0.26 0.45 0.26 0.16 0.11 0.06 0.10 0.23 0.27 0.36 0.22 0.20 0.28 0.29 0.38 0.15 0.18 0.13 0.06 0.15 0.19 0.23 0.34 0.24 0.33 0.24 0.15 0.32 0.34 0.31 0.26 0.56 0.35 0.40 0.54 0.30 0.52 0.77 0.59 0.33 0.38 0.39 0.56 0.32 0.27 0.33 0.33 0.58 0.48 0.21 0.38 0.40 0.57 0.35 0.11 0.06 0.07 0.05 0.31 0.51 0.22 0.16 0.01 0.03 0.00 0.01 0.01 0.01
0.00 0.00 0.00 0.00 0.00 0.00 0.00 0.00 0.00 0.00 0.00 0.00 0.00 0.00 0.00 0.00 0.00 0.01 0.01 0.00 0.00 0.00 0.00 0.02 0.03 0.04 0.05 0.09 0.22 0.41 0.28 0.25 0.22 0.18 0.09 0.05 0.17 0.39 0.19 0.19 0.16 0.23 0.34 0.20 0.33 0.23 0.27 0.32 0.48 0.19 0.15 0.07 0.06 0.13 0.23 0.24 0.26 0.45 0.42 0.39 0.45 0.42 0.25 0.53 0.54 0.33 0.48 0.30 0.36 0.39 0.29 0.28 0.49 0.67 0.56 0.59 0.38 0.34 0.28 0.21 0.51 0.91 0.64 0.33 0.16 0.17 0.10 0.66 0.52 0.52 0.45 0.18 0.01 0.03 0.00 0.00 0.00
0.00 0.00 0.00 0.00 0.00 0.00 0.00 0.00 0.00 0.00 0.00 0.00 0.00 0.00 0.00 0.00 0.00 0.00 0.01 0.01 0.00 0.00 0.01 0.01 0.02 0.05 0.07 0.06 0.21 0.36 0.23 0.33 0.39 0.19 0.25 0.20 0.30 0.21 0.16 0.20 0.29 0.28 0.25 0.26 0.44 0.46 0.38 0.83 0.55 0.18 0.15 0.08 0.20 0.19 0.25 0.24 0.23 0.13 0.34 0.55 0.39 0.42 0.20 0.20 0.35 0.23 0.44 0.66 0.65 0.49 0.56 0.31 0.39 0.61 0.34 0.75 0.45 0.51 0.21 0.41 0.67 0.80 0.44 0.35 0.28 0.41 0.26 0.47 0.56 0.38 0.43 0.30 0.15 0.00 0.00 0.00 0.00
0.00 0.00 0.00 0.00 0.00 0.00 0.00 0.00 0.00 0.00 0.00 0.00 0.00 0.00 0.00 0.00 0.00 0.00 0.00 0.00 0.00 0.00 0.00 0.01 0.01 0.01 0.04 0.05 0.10 0.18 0.30 0.41 0.45 0.49 0.58 0.76 0.59 0.53 0.64 0.36 0.20 0.47 0.29 0.16 0.54 0.88 0.54 0.19 0.22 0.10 0.14 0.09 0.16 0.13 0.14 0.04 0.03 0.02 0.03 0.25 0.42 0.16 0.32 0.27 0.67 0.41 0.50 0.76 0.74 0.50 0.52 0.19 0.26 0.47 0.58 0.39 0.23 0.18 0.18 0.63 0.40 0.47 0.85 0.86 0.39 0.43 0.37 0.39 0.33 0.18 0.25 0.15 0.09 0.03 0.01 0.01 0.00
0.00 0.00 0.00 0.00 0.00 0.00 0.00 0.00 0.00 0.00 0.00 0.00 0.00 0.00 0.00 0.00 0.00 0.00 0.00 0.00 0.01 0.01 0.01 0.01 0.02 0.06 0.03 0.08 0.13 0.41 0.35 0.77 0.69 0.63 0.73 0.36 0.30 0.35 0.15 0.08 0.23 0.25 0.09 0.32 0.32 0.23 0.29 0.25 0.61 0.40 0.25 0.18 0.10 0.05 0.02 0.01 0.02 0.01 0.02 0.05 0.08 0.12 0.25 0.25 0.31 0.46 0.88 0.92 0.44 0.57 0.65 0.26 0.24 0.40 0.40 0.36 0.24 0.16 0.11 0.33 0.40 0.42 0.77 0.69 0.49 0.44 0.19 0.40 0.27 0.22 0.44 0.14 0.08 0.35 0.06 0.01 0.01
0.00 0.00 0.00 0.00 0.00 0.00 0.00 0.00 0.00 0.00 0.00 0.00 0.00 0.00 0.00 0.00 0.00 0.00 0.00 0.00 0.00 0.00 0.02 0.03 0.07 0.03 0.04 0.06 0.13 0.17 0.27 0.19 0.82 0.64 0.45 0.19 0.34 0.15 0.08 0.04 0.07 0.23 0.07 0.15 0.56 0.26 0.12 0.15 0.09 0.24 0.17 0.11 0.02 0.02 0.01 0.01 0.02 0.07 0.03 0.06 0.03 0.07 0.32 0.49 0.66 0.71 0.33 0.40 0.67 0.65 0.69 0.50 0.57 0.59 0.66 0.39 0.47 0.40 0.13 0.26 0.25 0.51 0.75 0.97 0.63 0.31 0.52 0.53 0.32 0.48 0.46 0.23 0.09 0.38 0.42 0.10 0.03
0.00 0.00 0.00 0.00 0.00 0.00 0.00 0.00 0.00 0.00 0.00 0.00 0.00 0.00 0.00 0.00 0.00 0.00 0.00 0.00 0.00 0.00 0.01 0.03 0.05 0.04 0.11 0.21 0.11 0.09 0.12 0.15 0.13 0.18 0.26 0.13 0.13 0.06 0.04 0.03 0.05 0.16 0.16 0.54 0.14 0.04 0.05 0.05 0.01 0.09 0.19 0.28 0.17 0.03 0.01 0.03 0.02 0.02 0.04 0.06 0.04 0.12 0.13 0.35 0.29 0.42 0.43 0.35 0.35 0.26 0.32 0.39 0.48 0.51 0.44 0.50 0.24 0.17 0.17 0.40 0.57 0.49 0.46 1.05 0.47 0.82 1.08 0.56 0.48 0.69 0.81 0.43 0.26 0.20 0.25 0.19 0.54
0.00 0.00 0.00 0.00 0.00 0.00 0.00 0.00 0.00 0.00 0.00 0.00 0.00 0.00 0.00 0.00 0.00 0.01 0.01 0.00 0.01 0.00 0.01 0.01 0.03 0.21 0.09 0.30 0.23 0.06 0.12 0.20 0.10 0.06 0.09 0.16 0.16 0.05 0.02 0.02 0.17 0.36 0.22 0.15 0.02 0.01 0.01 0.05 0.02 0.11 0.17 0.10 0.09 0.18 0.08 0.05 0.03 0.05 0.04 0.05 0.06 0.04 0.07 0.06 0.12 0.13 0.20 0.25 0.15 0.33 0.64 0.26 0.43 0.34 0.31 0.30 0.42 0.17 0.19 0.21 0.63 0.54 0.89 0.90 0.91 1.07 0.92 0.88 0.78 0.56 0.40 0.42 0.36 0.56 0.43 0.58 0.72
0.00 0.00 0.00 0.00 0.00 0.00 0.00 0.00 0.00 0.00 0.00 0.00 0.00 0.00 0.00 0.00 0.00 0.01 0.02 0.00 0.01 0.01 0.01 0.01 0.01 0.03 0.05 0.07 0.08 0.11 0.08 0.06 0.05 0.04 0.06 0.03 0.07 0.04 0.02 0.03 0.07 0.13 0.17 0.04 0.05 0.03 0.02 0.03 0.05 0.06 0.05 0.04 0.04 0.05 0.04 0.04 0.05 0.06 0.06 0.07 0.04 0.08 0.05 0.04 0.03 0.08 0.08 0.11 0.10 0.26 0.20 0.10 0.31 0.22 0.23 0.28 0.35 0.15 0.19 0.28 0.34 0.67 0.84 0.62 1.13 0.81 1.29 1.18 0.90 0.53 0.54 0.40 0.28 0.43 0.61 0.67 0.34
0.00 0.00 0.00 0.00 0.00 0.00 0.00 0.00 0.00 0.00 0.00 0.00 0.00 0.00 0.00 0.00 0.00 0.01 0.00 0.01 0.01 0.01 0.00 0.00 0.01 0.02 0.08 0.02 0.03 0.06 0.10 0.09 0.06 0.03 0.06 0.03 0.02 0.02 0.02 0.01 0.20 0.16 0.16 0.05 0.04 0.09 0.07 0.08 0.02 0.10 0.10 0.05 0.02 0.02 0.04 0.05 0.05 0.03 0.04 0.04 0.04 0.03 0.03 0.02 0.03 0.03 0.04 0.06 0.06 0.11 0.20 0.20 0.22 0.10 0.19 0.24 0.21 0.17 0.17 0.15 0.26 0.72 0.61 0.78 0.62 0.86 0.96 0.68 0.55 0.75 0.54 0.46 0.28 0.45 0.70 0.81 0.48
0.00 0.00 0.00 0.00 0.00 0.00 0.00 0.00 0.00 0.00 0.00 0.00 0.00 0.00 0.00 0.00 0.00 0.01 0.02 0.01 0.01 0.00 0.00 0.01 0.01 0.03 0.04 0.01 0.04 0.04 0.03 0.05 0.03 0.02 0.07 0.05 0.02 0.05 0.04 0.09 0.13 0.10 0.03 0.06 0.10 0.13 0.12 0.14 0.06 0.08 0.10 0.06 0.02 0.04 0.04 0.04 0.02 0.02 0.02 0.03 0.03 0.02 0.02 0.01 0.01 0.01 0.02 0.02 0.03 0.04 0.06 0.06 0.10 0.05 0.10 0.16 0.11 0.06 0.06 0.10 0.32 0.31 0.43 0.28 0.30 0.47 0.48 0.41 0.90 0.93 0.92 0.61 0.54 0.47 0.52 0.86 0.48
0.00 0.00 0.00 0.00 0.00 0.00 0.00 0.00 0.00 0.00 0.00 0.00 0.00 0.00 0.00 0.00 0.00 0.00 0.01 0.01 0.01 0.01 0.01 0.01 0.01 0.01 0.01 0.02 0.02 0.02 0.03 0.05 0.02 0.01 0.04 0.03 0.06 0.08 0.13 0.09 0.13 0.11 0.05 0.06 0.06 0.10 0.14 0.25 0.14 0.05 0.11 0.08 0.03 0.03 0.02 0.01 0.01 0.01 0.02 0.01 0.01 0.01 0.00 0.00 0.00 0.00 0.01 0.01 0.02 0.03 0.05 0.04 0.03 0.04 0.02 0.04 0.04 0.02 0.08 0.07 0.05 0.10 0.14 0.46 0.47 0.29 0.38 0.38 0.51 0.74 1.04 1.23 1.04 0.92 1.08 0.86 0.82
0.00 0.00 0.00 0.00 0.00 0.00 0.00 0.00 0.00 0.00 0.00 0.00 0.00 0.00 0.00 0.00 0.00 0.00 0.01 0.01 0.01 0.00 0.01 0.01 0.01 0.01 0.00 0.02 0.01 0.02 0.04 0.07 0.02 0.03 0.01 0.03 0.13 0.11 0.15 0.10 0.11 0.06 0.03 0.05 0.08 0.08 0.08 0.13 0.15 0.09 0.06 0.09 0.02 0.01 0.01 0.01 0.01 0.01 0.00 0.00 0.00 0.00 0.00 0.00 0.00 0.00 0.00 0.01 0.01 0.02 0.04 0.06 0.02 0.02 0.02 0.02 0.01 0.01 0.04 0.05 0.06 0.13 0.07 0.13 0.14 0.29 0.42 0.26 0.53 1.05 0.90 0.79 0.78 0.69 1.04 1.00 1.06
0.00 0.00 0.00 0.00 0.00 0.00 0.00 0.00 0.00 0.00 0.00 0.00 0.00 0.00 0.00 0.00 0.00 0.00 0.01 0.01 0.00 0.00 0.00 0.00 0.01 0.01 0.01 0.01 0.01 0.01 0.03 0.04 0.02 0.02 0.01 0.02 0.04 0.14 0.15 0.17 0.20 0.09 0.05 0.06 0.08 0.10 0.11 0.08 0.15 0.19 0.08 0.12 0.06 0.02 0.02 0.02 0.00 0.01 0.01 0.00 0.00 0.00 0.00 0.00 0.00 0.00 0.00 0.00 0.00 0.01 0.02 0.02 0.02 0.06 0.02 0.02 0.02 0.01 0.01 0.01 0.03 0.05 0.08 0.10 0.09 0.16 0.10 0.22 0.34 0.61 1.08 0.71 1.09 1.17 1.03 1.27 0.88
0.00 0.00 0.00 0.00 0.00 0.00 0.02 0.00 0.00 0.00 0.00 0.00 0.00 0.00 0.00 0.00 0.00 0.00 0.01 0.02 0.01 0.01 0.00 0.00 0.01 0.01 0.01 0.02 0.02 0.01 0.01 0.03 0.10 0.03 0.02 0.02 0.05 0.19 0.21 0.19 0.24 0.09 0.05 0.15 0.05 0.07 0.10 0.04 0.18 0.16 0.19 0.13 0.16 0.10 0.01 0.01 0.00 0.01 0.00 0.00 0.00 0.00 0.00 0.00 0.00 0.00 0.00 0.00 0.00 0.00 0.00 0.01 0.01 0.01 0.02 0.05 0.04 0.02 0.01 0.02 0.01 0.01 0.03 0.04 0.10 0.09 0.09 0.16 0.24 0.32 0.66 0.56 0.43 1.10 0.74 1.13 0.95
0.00 0.00 0.00 0.00 0.00 0.00 0.00 0.05 0.00 0.00 0.00 0.00 0.00 0.00 0.01 0.00 0.00 0.01 0.01 0.00 0.00 0.00 0.01 0.01 0.00 0.01 0.01 0.02 0.02 0.01 0.00 0.01 0.11 0.06 0.01 0.03 0.06 0.08 0.18 0.20 0.16 0.12 0.05 0.02 0.03 0.03 0.08 0.12 0.18 0.07 0.11 0.11 0.14 0.24 0.01 0.00 0.00 0.01 0.00 0.00 0.00 0.00 0.00 0.00 0.00 0.00 0.00 0.00 0.00 0.00 0.00 0.00 0.00 0.00 0.01 0.01 0.01 0.02 0.02 0.01 0.01 0.01 0.02 0.02 0.03 0.05 0.04 0.09 0.17 0.38 0.28 0.46 0.38 0.61 1.46 0.50 0.75
0.00 0.00 0.00 0.00 0.00 0.00 0.00 0.00 0.00 0.00 0.02 0.00 0.00 0.00 0.00 0.00 0.00 0.00 0.01 0.01 0.00 0.00 0.01 0.01 0.00 0.00 0.01 0.01 0.01 0.01 0.01 0.01 0.03 0.03 0.01 0.02 0.15 0.13 0.20 0.35 0.44 0.16 0.17 0.21 0.12 0.14 0.07 0.07 0.14 0.16 0.11 0.27 0.08 0.17 0.04 0.00 0.00 0.00 0.00 0.00 0.00 0.00 0.00 0.00 0.00 0.00 0.00 0.00 0.00 0.00 0.00 0.00 0.00 0.00 0.00 0.00 0.01 0.00 0.00 0.00 0.00 0.00 0.01 0.02 0.02 0.02 0.02 0.02 0.02 0.05 0.12 0.25 0.41 0.51 0.53 0.71 0.80
0.00 0.01 0.00 0.00 0.00 0.00 0.00 0.00 0.00 0.00 0.01 0.06 0.00 0.01 0.03 0.00 0.00 0.00 0.00 0.00 0.00 0.00 0.00 0.00 0.00 0.00 0.00 0.01 0.01 0.01 0.01 0.01 0.00 0.04 0.07 0.04 0.14 0.15 0.18 0.37 0.41 0.28 0.11 0.16 0.26 0.34 0.18 0.10 0.11 0.12 0.12 0.23 0.24 0.15 0.05 0.00 0.01 0.00 0.00 0.00 0.00 0.00 0.00 0.00 0.00 0.00 0.00 0.00 0.00 0.00 0.00 0.00 0.00 0.00 0.00 0.00 0.00 0.00 0.00 0.00 0.00 0.00 0.00 0.01 0.01 0.02 0.03 0.02 0.02 0.07 0.03 0.08 0.14 0.15 0.26 0.31 0.41
0.01 0.01 0.00 0.00 0.00 0.00 0.00 0.00 0.00 0.01 0.00 0.00 0.00 0.00 0.03 0.01 0.02 0.00 0.00 0.00 0.00 0.01 0.00 0.00 0.00 0.01 0.01 0.02 0.02 0.02 0.01 0.00 0.00 0.00 0.01 0.01 0.06 0.11 0.14 0.36 0.22 0.20 0.13 0.28 0.26 0.32 0.30 0.20 0.14 0.14 0.15 0.11 0.12 0.27 0.08 0.02 0.01 0.00 0.00 0.00 0.00 0.00 0.00 0.00 0.00 0.00 0.00 0.00 0.00 0.00 0.00 0.00 0.00 0.00 0.00 0.00 0.00 0.00 0.00 0.00 0.01 0.01 0.01 0.01 0.01 0.01 0.02 0.02 0.03 0.02 0.03 0.05 0.03 0.04 0.10 0.16 0.11
0.01 0.00 0.00 0.00 0.00 0.00 0.00 0.00 0.00 0.02 0.01 0.05 0.00 0.00 0.00 0.02 0.05 0.00 0.00 0.00 0.00 0.02 0.01 0.02 0.01 0.01 0.02 0.04 0.03 0.03 0.01 0.01 0.01 0.00 0.00 0.03 0.03 0.07 0.24 0.17 0.24 0.24 0.17 0.21 0.26 0.29 0.40 0.38 0.32 0.25 0.77 0.28 0.34 0.24 0.13 0.01 0.00 0.00 0.00 0.00 0.00 0.00 0.00 0.00 0.00 0.00 0.00 0.00 0.00 0.00 0.00 0.00 0.00 0.00 0.00 0.00 0.00 0.00 0.00 0.01 0.01 0.01 0.02 0.01 0.01 0.02 0.01 0.02 0.02 0.02 0.04 0.05 0.05 0.03 0.04 0.04 0.04
0.00 0.00 0.00 0.00 0.00 0.00 0.00 0.01 0.01 0.05 0.00 0.02 0.03 0.06 0.01 0.02 0.01 0.01 0.01 0.01 0.02 0.08 0.06 0.03 0.03 0.01 0.02 0.06 0.06 0.04 0.06 0.03 0.07 0.02 0.00 0.00 0.00 0.04 0.09 0.18 0.19 0.21 0.34 0.69 0.75 0.74 0.79 0.70 1.01 0.40 0.53 0.68 0.64 0.20 0.16 0.01 0.00 0.00 0.00 0.00 0.00 0.00 0.00 0.00 0.00 0.00 0.00 0.00 0.00 0.00 0.00 0.00 0.00 0.00 0.00 0.00 0.00 0.00 0.00 0.01 0.01 0.01 0.01 0.01 0.01 0.02 0.01 0.01 0.01 0.01 0.02 0.04 0.02 0.02 0.02 0.02 0.04
0.00 0.00 0.00 0.00 0.00 0.01 0.01 0.00 0.04 0.03 0.00 0.01 0.02 0.01 0.00 0.06 0.06 0.02 0.02 0.00 0.03 0.00 0.01 0.02 0.01 0.06 0.06 0.02 0.04 0.04 0.05 0.05 0.04 0.02 0.04 0.04 0.01 0.02 0.05 0.08 0.30 0.22 0.27 0.37 1.13 1.29 0.66 0.39 0.66 0.62 0.34 0.50 0.42 0.25 0.31 0.10 0.00 0.00 0.00 0.00 0.00 0.00 0.00 0.00 0.00 0.00 0.00 0.00 0.00 0.00 0.00 0.00 0.00 0.00 0.00 0.00 0.00 0.00 0.00 0.00 0.00 0.00 0.00 0.00 0.00 0.00 0.01 0.01 0.01 0.01 0.01 0.01 0.04 0.03 0.02 0.02 0.02
0.00 0.00 0.02 0.00 0.02 0.00 0.01 0.03 0.01 0.06 0.00 0.02 0.01 0.00 0.01 0.06 0.04 0.03 0.01 0.00 0.00 0.01 0.01 0.01 0.00 0.00 0.00 0.02 0.05 0.04 0.03 0.03 0.04 0.03 0.02 0.01 0.00 0.01 0.16 0.37 0.32 0.24 0.36 0.66 0.65 0.87 0.91 0.36 0.77 0.69 0.95 0.54 0.42 0.23 0.18 0.02 0.00 0.00 0.00 0.00 0.00 0.00 0.00 0.00 0.00 0.00 0.00 0.00 0.00 0.00 0.00 0.00 0.00 0.00 0.00 0.00 0.00 0.00 0.00 0.00 0.00 0.00 0.00 0.00 0.00 0.00 0.00 0.00 0.00 0.00 0.01 0.02 0.02 0.02 0.01 0.02 0.01
0.00 0.00 0.02 0.21 0.15 0.01 0.04 0.04 0.01 0.00 0.00 0.03 0.01 0.01 0.01 0.00 0.12 0.01 0.00 0.00 0.00 0.01 0.02 0.03 0.01 0.00 0.00 0.01 0.02 0.05 0.05 0.02 0.03 0.03 0.01 0.03 0.04 0.26 0.28 0.43 0.57 0.44 0.82 0.99 1.02 0.66 0.43 0.51 0.85 1.22 0.92 0.62 0.40 0.28 0.21 0.06 0.00 0.01 0.00 0.00 0.00 0.00 0.00 0.00 0.00 0.00 0.00 0.00 0.00 0.00 0.00 0.00 0.00 0.00 0.00 0.00 0.00 0.00 0.00 0.00 0.00 0.00 0.00 0.00 0.00 0.00 0.00 0.00 0.00 0.00 0.00 0.01 0.02 0.02 0.03 0.04 0.06
0.00 0.01 0.11 0.04 0.11 0.06 0.01 0.03 0.03 0.07 0.02 0.01 0.05 0.03 0.01 0.03 0.03 0.02 0.02 0.01 0.00 0.03 0.01 0.01 0.02 0.01 0.01 0.01 0.02 0.02 0.04 0.02 0.02 0.02 0.05 0.03 0.10 0.18 0.22 0.38 0.83 1.25 1.11 0.72 0.69 0.18 0.39 1.22 1.79 1.36 1.11 0.65 0.37 0.44 0.16 0.06 0.03 0.01 0.00 0.00 0.00 0.00 0.01 0.00 0.00 0.01 0.00 0.01 0.01 0.01 0.00 0.00 0.00 0.00 0.00 0.00 0.00 0.00 0.00 0.00 0.00 0.00 0.00 0.00 0.00 0.00 0.00 0.00 0.00 0.00 0.00 0.00 0.00 0.00 0.00 0.01 0.01
0.01 0.00 0.01 0.10 0.10 0.06 0.01 0.03 0.06 0.01 0.08 0.01 0.01 0.00 0.01 0.00 0.14 0.00 0.02 0.03 0.01 0.01 0.02 0.01 0.00 0.02 0.01 0.01 0.00 0.07 0.15 0.12 0.04 0.09 0.02 0.02 0.07 0.07 0.08 0.43 0.81 0.31 0.30 0.53 0.37 0.16 0.22 1.85 1.69 1.43 1.02 0.26 0.41 0.33 0.15 0.06 0.04 0.04 0.02 0.16 0.18 0.06 0.08 0.02 0.04 0.04 0.02 0.00 0.00 0.01 0.00 0.00 0.00 0.00 0.00 0.00 0.00 0.00 0.00 0.00 0.00 0.00 0.00 0.00 0.00 0.00 0.00 0.00 0.00 0.00 0.00 0.00 0.00 0.00 0.00 0.00 0.00
0.00 0.00 0.01 0.02 0.00 0.00 0.05 0.11 0.02 0.03 0.03 0.01 0.00 0.00 0.04 0.17 0.05 0.00 0.02 0.01 0.00 0.02 0.02 0.02 0.02 0.00 0.01 0.02 0.02 0.02 0.04 0.10 0.06 0.05 0.04 0.03 0.03 0.03 0.03 0.08 0.04 0.03 0.43 0.77 0.64 0.69 1.39 2.32 1.93 1.24 0.83 0.41 0.55 0.80 0.74 0.53 0.18 0.04 0.01 0.02 0.03 0.02 0.00 0.02 0.00 0.00 0.00 0.00 0.00 0.00 0.00 0.00 0.00 0.00 0.00 0.00 0.00 0.00 0.00 0.00 0.00 0.00 0.00 0.00 0.00 0.00 0.00 0.00 0.00 0.00 0.00 0.00 0.00 0.00 0.00 0.00 0.00
0.04 0.00 0.06 0.03 0.01 0.00 0.01 0.00 0.00 0.00 0.00 0.01 0.00 0.01 0.01 0.02 0.00 0.01 0.05 0.04 0.02 0.00 0.00 0.00 0.00 0.00 0.03 0.01 0.02 0.06 0.11 0.17 0.23 0.23 0.36 0.30 0.21 0.07 0.05 0.32 0.47 0.16 0.81 0.92 1.21 1.50 1.66 1.77 1.41 0.26 0.23 0.65 0.86 1.09 0.52 0.70 0.27 0.16 0.06 0.05 0.01 0.00 0.01 0.00 0.00 0.00 0.00 0.00 0.00 0.00 0.00 0.00 0.00 0.00 0.00 0.00 0.00 0.00 0.00 0.00 0.00 0.00 0.00 0.00 0.00 0.00 0.00 0.00 0.00 0.00 0.00 0.00 0.00 0.00 0.00 0.00 0.00
0.00 0.02 0.04 0.00 0.00 0.00 0.02 0.08 0.05 0.00 0.00 0.01 0.00 0.00 0.03 0.02 0.13 0.00 0.03 0.02 0.00 0.01 0.01 0.01 0.00 0.00 0.01 0.02 0.03 0.04 0.05 0.19 0.45 0.67 0.69 0.77 0.59 0.95 0.94 0.63 0.44 0.48 1.15 1.11 0.71 1.12 0.86 1.12 1.06 1.08 1.24 1.01 1.72 0.76 0.17 0.13 0.13 0.02 0.01 0.01 0.02 0.01 0.00 0.00 0.00 0.00 0.00 0.01 0.00 0.00 0.00 0.00 0.00 0.00 0.00 0.00 0.00 0.00 0.00 0.00 0.00 0.00 0.00 0.00 0.00 0.00 0.00 0.00 0.00 0.00 0.00 0.00 0.00 0.00 0.00 0.00 0.00
0.00 0.01 0.00 0.01 0.04 0.03 0.01 0.00 0.00 0.01 0.01 0.04 0.02 0.02 0.01 0.04 0.14 0.01 0.02 0.02 0.01 0.03 0.02 0.03 0.03 0.02 0.02 0.01 0.04 0.04 0.14 0.14 0.14 0.14 0.39 0.46 0.17 0.10 0.12 0.07 0.06 0.22 0.42 0.17 0.16 0.11 0.06 0.16 0.14 0.57 1.36 1.61 1.33 0.16 0.04 0.27 0.28 0.16 0.03 0.06 0.05 0.01 0.02 0.02 0.03 0.00 0.00 0.03 0.04 0.02 0.01 0.00 0.00 0.00 0.00 0.00 0.00 0.00 0.00 0.00 0.00 0.00 0.00 0.00 0.00 0.00 0.00 0.00 0.00 0.00 0.00 0.00 0.00 0.00 0.00 0.00 0.00
0.00 0.00 0.00 0.00 0.00 0.02 0.03 0.01 0.09 0.01 0.03 0.02 0.01 0.01 0.03 0.05 0.16 0.00 0.01 0.01 0.04 0.02 0.05 0.02 0.01 0.01 0.00 0.05 0.06 0.03 0.11 0.19 0.20 0.21 0.30 0.41 0.63 1.03 0.72 0.16 0.19 0.20 0.18 0.12 0.07 0.05 0.02 0.04 0.05 0.13 0.25 0.59 0.39 0.35 0.34 0.12 0.21 0.12 0.05 0.01 0.02 0.01 0.00 0.03 0.02 0.00 0.00 0.01 0.00 0.00 0.00 0.00 0.00 0.00 0.00 0.00 0.00 0.00 0.00 0.00 0.00 0.00 0.00 0.00 0.00 0.00 0.00 0.00 0.00 0.00 0.00 0.00 0.00 0.00 0.00 0.00 0.00
0.01 0.00 0.00 0.00 0.00 0.00 0.00 0.05 0.03 0.05 0.07 0.02 0.03 0.02 0.12 0.10 0.03 0.03 0.03 0.03 0.06 0.03 0.03 0.03 0.00 0.00 0.01 0.02 0.04 0.01 0.00 0.00 0.00 0.01 0.00 0.01 0.02 0.01 0.07 0.33 0.23 0.49 0.24 0.16 0.13 0.13 0.05 0.02 0.02 0.02 0.02 0.05 0.14 0.49 0.48 0.18 0.04 0.02 0.02 0.06 0.06 0.25 0.22 0.07 0.09 0.04 0.03 0.07 0.06 0.02 0.02 0.00 0.00 0.00 0.00 0.00 0.00 0.00 0.00 0.00 0.00 0.00 0.00 0.00 0.00 0.00 0.00 0.00 0.00 0.00 0.00 0.00 0.00 0.00 0.00 0.00 0.00
0.00 0.01 0.03 0.01 0.08 0.10 0.05 0.03 0.00 0.07 0.01 0.02 0.03 0.05 0.12 0.06 0.00 0.03 0.05 0.03 0.04 0.05 0.04 0.02 0.00 0.00 0.00 0.01 0.02 0.02 0.00 0.00 0.03 0.01 0.01 0.00 0.00 0.04 0.01 0.02 0.05 0.13 0.14 0.07 0.11 0.06 0.05 0.04 0.04 0.03 0.01 0.10 0.14 0.43 0.50 0.29 0.16 0.04 0.23 0.22 0.27 0.16 0.42 0.34 0.27 0.10 0.13 0.05 0.02 0.01 0.00 0.00 0.01 0.02 0.00 0.00 0.00 0.00 0.00 0.00 0.00 0.00 0.00 0.00 0.00 0.00 0.00 0.00 0.00 0.00 0.00 0.00 0.00 0.00 0.00 0.00 0.00